When you browse on this site, cookies collect data to enhance your experience and personalize the content and advertising you see.
Visit our Privacy Policy to learn more. By continuing to use the site, you agree to this use of cookies and data.
  • In Austria
  • List of Countries
  • For 7 days
  • Water Temperature
  • Satellite Maps
  • Weather Map
  • News
  • Weather Widgets
  • user-avatar
    Login

    Hourly Weather Buda (Dyakovichi)

    Today, 16 July, Tuesday

    Time Temperature Precipitation Wind Pressure Humidity
    00:00 +13°C° 0 mm 1 mps 745 mmHg 91%
    01:00 +13°C° 0 mm 1 mps 745 mmHg 91%
    02:00 +12°C° 0 mm 1 mps 745 mmHg 90%
    03:00 +12°C° 0 mm 1 mps 745 mmHg 90%
    04:00 +12°C° 0 mm 1 mps 745 mmHg 90%
    05:00 +12°C° 0 mm 1 mps 745 mmHg 90%
    06:00 +14°C° 0 mm 1 mps 745 mmHg 84%
    07:00 +16°C° 0 mm 1 mps 745 mmHg 79%
    08:00 +18°C° 0 mm 2 mps 745 mmHg 73%
    09:00 +19°C° 0.2 mm 2 mps 745 mmHg 68%
    10:00 +21°C° 0.2 mm 2 mps 744 mmHg 62%
    11:00 +23°C° 0.2 mm 2 mps 744 mmHg 56%
    12:00 +23°C° 0.2 mm 2 mps 744 mmHg 56%
    13:00 +24°C° 0.2 mm 3 mps 743 mmHg 57%
    14:00 +24°C° 0.2 mm 3 mps 743 mmHg 57%
    15:00 +22°C° 0.3 mm 3 mps 743 mmHg 62%
    16:00 +22°C° 0.3 mm 3 mps 743 mmHg 67%
    17:00 +21°C° 0.3 mm 3 mps 743 mmHg 72%
    18:00 +20°C° 0.3 mm 2 mps 743 mmHg 77%
    19:00 +18°C° 0.3 mm 2 mps 742 mmHg 82%
    20:00 +17°C° 0.3 mm 2 mps 742 mmHg 87%
    21:00 +16°C° 0.2 mm 2 mps 742 mmHg 89%
    22:00 +16°C° 0.2 mm 2 mps 742 mmHg 91%
    23:00 +15°C° 0.2 mm 2 mps 742 mmHg 93%

    Tomorrow, 17 July, Wednesday

    Time Temperature Precipitation Wind Pressure Humidity
    00:00 +14°C° 0.4 mm 2 mps 742 mmHg 94%
    01:00 +13°C° 0.4 mm 3 mps 742 mmHg 94%
    02:00 +12°C° 0.4 mm 3 mps 742 mmHg 95%
    03:00 +12°C° 0 mm 3 mps 742 mmHg 96%
    04:00 +11°C° 0 mm 3 mps 742 mmHg 97%
    05:00 +10°C° 0 mm 3 mps 742 mmHg 98%
    06:00 +11°C° 0 mm 3 mps 742 mmHg 95%
    07:00 +12°C° 0 mm 3 mps 742 mmHg 92%
    08:00 +14°C° 0 mm 3 mps 742 mmHg 89%
    09:00 +16°C° 0.3 mm 3 mps 742 mmHg 84%
    10:00 +17°C° 0.3 mm 3 mps 742 mmHg 79%
    11:00 +18°C° 0.3 mm 3 mps 742 mmHg 74%
    12:00 +18°C° 0.7 mm 4 mps 742 mmHg 72%
    13:00 +19°C° 0.7 mm 4 mps 742 mmHg 70%
    14:00 +19°C° 0.7 mm 4 mps 741 mmHg 68%
    15:00 +19°C° 0.4 mm 4 mps 741 mmHg 70%
    16:00 +18°C° 0.4 mm 3 mps 741 mmHg 73%
    17:00 +18°C° 0.4 mm 3 mps 741 mmHg 76%
    18:00 +17°C° 0.3 mm 2 mps 741 mmHg 81%
    19:00 +15°C° 0.3 mm 2 mps 741 mmHg 86%
    20:00 +14°C° 0.3 mm 1 mps 741 mmHg 91%
    21:00 +14°C° 0 mm 1 mps 741 mmHg 92%
    22:00 +13°C° 0 mm 1 mps 741 mmHg 93%
    23:00 +12°C° 0 mm 2 mps 742 mmHg 94%

    Day after tomorrow, 18 July, Thursday

    Time Temperature Precipitation Wind Pressure Humidity
    00:00 +12°C° 0 mm 2 mps 742 mmHg 95%
    01:00 +12°C° 0 mm 2 mps 742 mmHg 95%
    02:00 +10°C° 0 mm 2 mps 742 mmHg 96%
    03:00 +10°C° 0 mm 2 mps 742 mmHg 97%
    04:00 +10°C° 0 mm 2 mps 742 mmHg 97%
    05:00 +10°C° 0 mm 2 mps 742 mmHg 98%
    06:00 +11°C° 0 mm 3 mps 742 mmHg 96%
    07:00 +12°C° 0 mm 3 mps 742 mmHg 95%
    08:00 +13°C° 0 mm 4 mps 742 mmHg 94%
    09:00 +14°C° 0 mm 4 mps 743 mmHg 91%
    10:00 +14°C° 0 mm 4 mps 743 mmHg 88%
    11:00 +15°C° 0 mm 4 mps 743 mmHg 85%
    12:00 +15°C° 0.1 mm 4 mps 743 mmHg 84%
    13:00 +17°C° 0.1 mm 4 mps 743 mmHg 83%
    14:00 +17°C° 0.1 mm 4 mps 743 mmHg 83%
    15:00 +18°C° 0.3 mm 4 mps 743 mmHg 81%
    16:00 +19°C° 0.3 mm 3 mps 743 mmHg 79%
    17:00 +19°C° 0.3 mm 3 mps 743 mmHg 78%
    18:00 +18°C° 0.1 mm 3 mps 743 mmHg 83%
    19:00 +17°C° 0.1 mm 3 mps 744 mmHg 88%
    20:00 +16°C° 0.1 mm 2 mps 744 mmHg 94%
    21:00 +16°C° 0 mm 2 mps 744 mmHg 95%
    22:00 +15°C° 0 mm 2 mps 744 mmHg 96%
    23:00 +14°C° 0 mm 2 mps 745 mmHg 97%

    19 July, Friday

    Time Temperature Precipitation Wind Pressure Humidity
    00:00 +14°C° 0 mm 2 mps 745 mmHg 96%
    01:00 +13°C° 0 mm 3 mps 745 mmHg 96%
    02:00 +12°C° 0 mm 3 mps 745 mmHg 96%
    03:00 +12°C° 0 mm 3 mps 745 mmHg 96%
    04:00 +12°C° 0 mm 3 mps 746 mmHg 96%
    05:00 +12°C° 0 mm 3 mps 746 mmHg 96%
    06:00 +13°C° 0 mm 3 mps 746 mmHg 90%
    07:00 +16°C° 0 mm 3 mps 746 mmHg 84%
    08:00 +18°C° 0 mm 3 mps 747 mmHg 78%
    09:00 +19°C° 0 mm 3 mps 747 mmHg 71%
    10:00 +21°C° 0 mm 4 mps 747 mmHg 63%
    11:00 +22°C° 0 mm 4 mps 747 mmHg 56%
    12:00 +23°C° 0 mm 4 mps 747 mmHg 54%
    13:00 +23°C° 0 mm 4 mps 747 mmHg 53%
    14:00 +25°C° 0 mm 4 mps 747 mmHg 51%
    15:00 +24°C° 0.2 mm 3 mps 747 mmHg 57%
    16:00 +24°C° 0.2 mm 3 mps 747 mmHg 62%
    17:00 +22°C° 0.2 mm 3 mps 747 mmHg 68%
    18:00 +21°C° 0.1 mm 2 mps 747 mmHg 74%
    19:00 +19°C° 0.1 mm 2 mps 748 mmHg 80%
    20:00 +19°C° 0.1 mm 1 mps 748 mmHg 86%
    21:00 +18°C° 0 mm 1 mps 748 mmHg 87%
    22:00 +16°C° 0 mm 1 mps 748 mmHg 89%
    23:00 +15°C° 0 mm 1 mps 749 mmHg 91%

    20 July, Saturday

    Time Temperature Precipitation Wind Pressure Humidity
    00:00 +15°C° 0 mm 1 mps 749 mmHg 91%
    01:00 +14°C° 0 mm 1 mps 749 mmHg 92%
    02:00 +14°C° 0 mm 1 mps 749 mmHg 92%
    03:00 +14°C° 0 mm 1 mps 749 mmHg 92%
    04:00 +14°C° 0 mm 1 mps 749 mmHg 92%
    05:00 +14°C° 0 mm 1 mps 749 mmHg 92%
    06:00 +16°C° 0 mm 1 mps 750 mmHg 86%
    07:00 +19°C° 0 mm 1 mps 750 mmHg 79%
    08:00 +20°C° 0 mm 1 mps 750 mmHg 73%
    09:00 +21°C° 0 mm 2 mps 750 mmHg 66%
    10:00 +23°C° 0 mm 2 mps 750 mmHg 60%
    11:00 +25°C° 0 mm 2 mps 750 mmHg 53%
    12:00 +25°C° 0 mm 2 mps 750 mmHg 51%
    13:00 +26°C° 0 mm 2 mps 750 mmHg 49%
    14:00 +26°C° 0 mm 2 mps 750 mmHg 47%
    15:00 +26°C° 0 mm 2 mps 750 mmHg 49%
    16:00 +26°C° 0 mm 2 mps 750 mmHg 51%
    17:00 +26°C° 0 mm 2 mps 750 mmHg 54%
    18:00 +24°C° 0 mm 2 mps 750 mmHg 61%
    19:00 +22°C° 0 mm 1 mps 750 mmHg 68%
    20:00 +20°C° 0 mm 1 mps 750 mmHg 75%
    21:00 +19°C° 0 mm 1 mps 750 mmHg 77%
    22:00 +18°C° 0 mm 1 mps 751 mmHg 79%
    23:00 +15°C° 0 mm 0 mps 751 mmHg 80%

    21 July, Sunday

    Time Temperature Precipitation Wind Pressure Humidity
    00:00 +15°C° 0 mm 0 mps 751 mmHg 81%
    01:00 +14°C° 0 mm 0 mps 751 mmHg 82%
    02:00 +14°C° 0 mm 0 mps 751 mmHg 83%
    03:00 +14°C° 0 mm 0 mps 751 mmHg 84%
    04:00 +14°C° 0 mm 0 mps 751 mmHg 84%
    05:00 +14°C° 0 mm 0 mps 751 mmHg 84%
    06:00 +16°C° 0 mm 0 mps 752 mmHg 78%
    07:00 +18°C° 0 mm 0 mps 752 mmHg 72%
    08:00 +20°C° 0 mm 0 mps 752 mmHg 67%
    09:00 +24°C° 0 mm 1 mps 752 mmHg 63%
    10:00 +25°C° 0 mm 1 mps 752 mmHg 59%
    11:00 +26°C° 0 mm 1 mps 752 mmHg 54%
    12:00 +27°C° 0 mm 1 mps 752 mmHg 53%
    13:00 +27°C° 0 mm 2 mps 752 mmHg 52%
    14:00 +27°C° 0 mm 2 mps 752 mmHg 51%
    15:00 +27°C° 0.1 mm 2 mps 752 mmHg 54%
    16:00 +27°C° 0.1 mm 2 mps 752 mmHg 58%
    17:00 +26°C° 0.1 mm 2 mps 752 mmHg 61%
    18:00 +24°C° 0.1 mm 2 mps 752 mmHg 67%
    19:00 +23°C° 0.1 mm 2 mps 752 mmHg 72%
    20:00 +21°C° 0.1 mm 1 mps 752 mmHg 77%
    21:00 +20°C° 0 mm 1 mps 752 mmHg 79%
    22:00 +19°C° 0 mm 1 mps 752 mmHg 80%
    23:00 +18°C° 0 mm 1 mps 753 mmHg 81%
    Show more